Flag for Norway Weather past 2 weeks in Porsgrunn, Norway

Now
57 °F

Cool.


Feels Like: 57 °F
Forecast: 48 / 70 °F
Wind: 1 mph from Northwest

Location: Jomfruland Fyr

Current Time: Sep 2, 2014 at 4:17:17 AM

Latest Report: Sep 2, 2014 at 3:00 AM


Visibility: N/A

Pressure: 30.20 "Hg

Humidity: 82%

Dew point: 52 °F

Location of PorsgrunnLocation

Historic Weather in Porsgrunn — Graph

°F

Porsgrunn temperature yesterday

Maximum temperature yesterday: 61 °F (at 5:00 PM)
Minimum temperature yesterday: 53 °F (at 6:00 AM)
Average temperature yesterday: 57 °F

Past Weeks' High & Low Weather Summary

 TemperatureHumidityPressure
High68 °F (Aug 21, 4:00 PM)93% (Aug 31, 1:00 AM)30.22 "Hg (Aug 31, 1:00 AM)
Low50 °F (Aug 18, 7:00 AM)36% (Aug 21, 4:00 PM)29.18 "Hg (Aug 18, 8:00 AM)
Average59 °F74%29.73 "Hg
* Reported Aug 18 2:00 AM — Sep 2 2:00 AM, Porsgrunn, Weather by CustomWeather, © 2014

Note: Actual official high and low records may vary slightly from our data, if they occured in-between our weather recording intervals... More about our weather records

Advertising

Porsgrunn weather history for previous 24 hours

 ConditionsComfort  
Time TempWeatherWind HumidityBarometerVisibility
2:00 AM
Sep 2
57 °FCool.2 mph80%30.20 "HgN/A
1:00 AM58 °FCool.1 mph80%30.19 "HgN/A
12:00 AM57 °FCool.1 mph80%30.19 "HgN/A
11:00 PM
Sep 1
58 °FCool.1 mph80%30.19 "HgN/A
10:00 PM56 °FCool.1 mph81%30.19 "HgN/A
9:00 PM57 °FCool.1 mph80%30.19 "HgN/A
8:00 PM58 °FCool.1 mph75%30.18 "HgN/A
7:00 PM59 °FCool.1 mph70%30.18 "HgN/A
6:00 PM60 °FCool.1 mph69%30.19 "HgN/A
5:00 PM61 °FCool.2 mph67%30.19 "HgN/A
4:00 PM60 °FCool.2 mph72%30.20 "HgN/A
3:00 PM60 °FCool.2 mph74%30.21 "HgN/A
2:00 PM60 °FCool.3 mph77%30.21 "HgN/A
1:00 PM60 °FCool.3 mph74%30.22 "HgN/A
12:00 PM60 °FCool.3 mph75%30.21 "HgN/A
11:00 AM59 °FCool.5 mph79%30.21 "HgN/A
10:00 AM58 °FCool.3 mph78%30.20 "HgN/A
9:00 AM57 °FCool.5 mph77%30.21 "HgN/A
8:00 AM55 °FCool.5 mph81%30.20 "HgN/A
7:00 AM53 °FCool.5 mph83%30.19 "HgN/A
6:00 AM53 °FCool.5 mph82%30.17 "HgN/A
5:00 AM54 °FCool.5 mph81%30.18 "HgN/A
4:00 AM54 °FCool.5 mph81%30.19 "HgN/A
Weather by CustomWeather, © 2014

See weather overviewHow to use our weather pages